Date String (YYYY-MM-DD hh:mm:ss) UTC,Instrument flags,absolute air pressure of the measurement (hPa),sample flow rate (lpm),inlet stack bypass flow (lpm),air temperature of the measurement (°C),ambient temperature measured by the external sensor (°C),aerosol sample conditioner tube jacket temperature (°C),OPC LED temperature (°C),internal box temperature (°C),relative humidity of the measurement (%),span deviation,mass concentration of particles derived from Lorenz-Mie calculation of OPC scattering (μg/m³),mass concentration of particles derived from Lorenz-Mie calculation of OPC scattering (μg/m³),mass concentration of particles derived from Lorenz-Mie calculation of OPC scattering (μg/m³)
DateTimeUTC,F1_M11,P_M11,Q1_M11,Q2_M11,T1_M11,T2_M11,T3_M11,T4_M11,T5_M11,U1_M11,ZSPAN_M11,X0_M11,X2_M11,X1_M11
2024-04-19 06:00:00,SystemResetWarning,0833.8,5.01,000.00,019.4,018.8,000.0,027.9,021.2,024.4,0000.0,0009.47,0006.69,0006.04
2024-04-19 06:01:00,SystemResetWarning,0833.8,5.00,000.00,019.4,018.8,000.0,028.0,021.2,024.4,0000.0,0009.49,0006.69,0006.04
2024-04-19 06:02:00,SystemResetWarning,0833.8,5.00,000.00,019.4,018.8,000.0,028.0,021.2,024.4,0000.0,0009.50,0006.69,0006.04
2024-04-19 06:03:00,SystemResetWarning,0833.8,5.00,000.00,019.4,018.8,000.0,028.0,021.2,024.4,0000.0,0009.62,0006.68,0006.04
2024-04-19 06:04:00,SystemResetWarning,0833.8,5.00,000.00,019.4,018.8,000.0,027.9,021.2,024.4,0000.0,0009.85,0006.65,0006.03
2024-04-19 06:05:00,SystemResetWarning,0833.8,5.00,000.00,019.4,018.8,000.0,027.9,021.2,024.4,0000.0,0009.81,0006.61,0006.02
2024-04-19 06:06:00,SystemResetWarning,0833.7,5.00,000.00,019.4,018.8,000.0,027.9,021.2,024.4,0000.0,0009.73,0006.56,0006.00
2024-04-19 06:07:00,SystemResetWarning,0833.7,5.00,000.00,019.4,018.8,000.0,027.9,021.2,024.4,0000.0,0009.66,0006.51,0005.98
2024-04-19 06:08:00,SystemResetWarning,0833.7,5.01,000.00,019.4,018.8,000.0,027.9,021.2,024.5,0000.0,0009.75,0006.51,0005.96
2024-04-19 06:09:00,SystemResetWarning,0833.7,5.00,000.00,019.4,018.8,000.0,027.9,021.2,024.9,0000.0,0009.65,0006.45,0005.93
2024-04-19 06:10:00,SystemResetWarning,0833.7,4.99,000.00,019.4,018.8,000.0,027.9,021.2,025.3,0000.0,0009.79,0006.41,0005.90
2024-04-19 06:11:00,SystemResetWarning,0833.7,5.00,000.00,019.4,018.8,000.0,027.9,021.2,024.9,0000.0,0010.29,0006.39,0005.87
2024-04-19 06:12:00,SystemResetWarning,0833.8,5.00,000.00,019.4,018.8,000.0,027.9,021.2,024.8,0000.0,0010.67,0006.35,0005.86
2024-04-19 06:13:00,SystemResetWarning,0833.8,5.00,000.00,019.4,018.8,000.0,027.9,021.2,024.7,0000.0,0010.63,0006.31,0005.84
2024-04-19 06:14:00,SystemResetWarning,0833.8,5.00,000.00,019.4,018.8,000.0,027.9,021.2,024.7,0000.0,0010.42,0006.27,0005.83
2024-04-19 06:15:00,SystemResetWarning,0833.8,5.00,000.00,019.4,018.8,000.0,027.9,021.2,024.7,0000.0,0010.15,0006.28,0005.81
2024-04-19 06:16:00,SystemResetWarning,0833.8,5.00,000.00,019.4,018.8,000.0,027.9,021.2,024.7,0000.0,0010.11,0006.27,0005.79
2024-04-19 06:17:00,SystemResetWarning,0833.8,5.00,000.00,019.4,018.8,000.0,027.9,021.2,024.7,0000.0,0010.07,0006.25,0005.77
2024-04-19 06:18:00,SystemResetWarning,0833.8,5.00,000.00,019.4,018.8,000.0,027.9,021.2,024.6,0000.0,0009.99,0006.21,0005.75
2024-04-19 06:19:00,SystemResetWarning,0833.7,5.00,000.00,019.4,018.8,000.0,027.9,021.2,024.7,0000.0,0009.79,0006.14,0005.72
2024-04-19 06:20:00,SystemResetWarning,0833.8,5.00,000.00,019.4,018.8,000.0,027.9,021.2,024.6,0000.0,0009.72,0006.12,0005.70
2024-04-19 06:21:00,SystemResetWarning,0833.8,4.99,000.00,019.4,018.8,000.0,027.9,021.2,024.7,0000.0,0009.29,0006.07,0005.69
2024-04-19 06:22:00,SystemResetWarning,0833.8,5.00,000.00,019.4,018.8,000.0,027.9,021.2,024.8,0000.0,0008.76,0006.04,0005.68
2024-04-19 06:23:00,SystemResetWarning,0833.8,5.00,000.00,019.4,018.8,000.0,027.9,021.2,024.7,0000.0,0008.34,0006.06,0005.66
2024-04-19 06:24:00,SystemResetWarning,0833.8,5.00,000.00,019.4,018.8,000.0,027.9,021.2,024.8,0000.0,0008.35,0006.06,0005.64
2024-04-19 06:25:00,SystemResetWarning,0833.8,4.99,000.00,019.4,018.8,000.0,027.9,021.2,024.8,0000.0,0008.34,0006.06,0005.63
2024-04-19 06:26:00,SystemResetWarning,0833.8,5.00,000.00,019.4,018.8,000.0,027.9,021.2,024.8,0000.0,0008.24,0006.01,0005.62
2024-04-19 06:27:00,SystemResetWarning,0833.8,5.01,000.00,019.4,018.9,000.0,027.9,021.2,024.7,0000.0,0008.16,0005.97,0005.61
2024-04-19 06:28:00,SystemResetWarning,0833.8,5.00,000.00,019.4,018.9,000.0,027.9,021.2,024.7,0000.0,0008.11,0005.94,0005.59
2024-04-19 06:29:00,SystemResetWarning,0833.7,5.00,000.00,019.4,018.9,000.0,027.9,021.2,024.7,0000.0,0008.02,0005.90,0005.58
2024-04-19 06:30:00,SystemResetWarning,0833.7,5.00,000.00,019.4,018.9,000.0,027.9,021.2,024.6,0000.0,0007.96,0005.88,0005.57
2024-04-19 06:31:00,SystemResetWarning,0833.7,5.00,000.00,019.4,018.9,000.0,027.9,021.2,024.7,0000.0,0008.00,0005.88,0005.55
2024-04-19 06:32:00,SystemResetWarning,0833.7,5.00,000.00,019.4,018.9,000.0,027.9,021.2,024.6,0000.0,0007.95,0005.85,0005.53
2024-04-19 06:33:00,SystemResetWarning,0833.7,5.01,000.00,019.4,018.9,000.0,027.9,021.2,024.6,0000.0,0007.79,0005.79,0005.50
2024-04-19 06:34:00,SystemResetWarning,0833.6,5.00,000.00,019.4,018.9,000.0,027.9,021.2,024.6,0000.0,0007.62,0005.73,0005.48
2024-04-19 06:35:00,SystemResetWarning,0833.7,5.00,000.00,019.4,018.9,000.0,027.9,021.2,024.6,0000.0,0007.52,0005.70,0005.48
2024-04-19 06:36:00,SystemResetWarning,0833.7,5.00,000.00,019.4,018.9,000.0,027.9,021.2,024.6,0000.0,0007.66,0005.68,0005.47
2024-04-19 06:37:00,SystemResetWarning,0833.6,5.00,000.00,019.4,018.9,000.0,027.9,021.2,024.7,0000.0,0007.82,0005.65,0005.45
2024-04-19 06:38:00,SystemResetWarning,0833.7,4.99,000.00,019.4,018.9,000.0,027.9,021.2,024.6,0000.0,0007.86,0005.64,0005.44
2024-04-19 06:39:00,SystemResetWarning,0833.7,5.00,000.00,019.4,018.9,000.0,027.9,021.2,024.6,0000.0,0007.90,0005.66,0005.44
2024-04-19 06:40:00,SystemResetWarning,0833.7,5.00,000.00,019.5,018.9,000.0,027.9,021.2,024.6,0000.0,0007.97,0005.68,0005.44
2024-04-19 06:41:00,SystemResetWarning,0833.7,5.01,000.00,019.5,018.9,000.0,027.9,021.3,024.7,0000.0,0007.99,0005.68,0005.44
2024-04-19 06:42:00,SystemResetWarning,0833.7,5.01,000.00,019.5,018.9,000.0,027.9,021.2,024.7,0000.0,0008.01,0005.70,0005.46
2024-04-19 06:43:00,SystemResetWarning,0833.7,5.00,000.00,019.5,018.9,000.0,028.0,021.2,024.7,0000.0,0008.03,0005.73,0005.49
2024-04-19 06:44:00,SystemResetWarning,0833.6,5.00,000.00,019.5,018.9,000.0,028.0,021.3,024.7,0000.0,0008.04,0005.76,0005.51
2024-04-19 06:45:00,SystemResetWarning,0833.6,5.01,000.00,019.5,018.9,000.0,028.0,021.3,024.7,0000.0,0008.13,0005.81,0005.54
2024-04-19 06:46:00,SystemResetWarning,0833.7,4.99,000.00,019.5,018.9,000.0,028.0,021.3,024.7,0000.0,0008.22,0005.85,0005.55
2024-04-19 06:47:00,SystemResetWarning,0833.7,4.99,000.00,019.5,018.9,000.0,028.0,021.3,024.7,0000.0,0008.19,0005.92,0005.58
2024-04-19 06:48:00,SystemResetWarning,0833.7,5.00,000.00,019.5,019.0,000.0,028.0,021.3,024.9,0000.0,0008.11,0005.98,0005.61
2024-04-19 06:49:00,SystemResetWarning,0833.7,5.00,000.00,019.5,019.0,000.0,028.0,021.3,025.5,0000.0,0008.10,0006.00,0005.62
2024-04-19 06:50:00,SystemResetWarning,0833.7,5.02,000.00,019.5,019.0,000.0,028.0,021.3,025.2,0000.0,0008.10,0006.01,0005.64
2024-04-19 06:51:00,SystemResetWarning,0833.7,5.00,000.00,019.5,019.0,000.0,028.0,021.3,025.0,0000.0,0008.10,0006.01,0005.65
2024-04-19 06:52:00,SystemResetWarning,0833.7,5.00,000.00,019.5,019.0,000.0,028.0,021.3,024.9,0000.0,0008.14,0006.02,0005.66
2024-04-19 06:53:00,SystemResetWarning,0833.7,4.99,000.00,019.5,019.0,000.0,028.0,021.3,024.9,0000.0,0008.22,0006.03,0005.66
2024-04-19 06:54:00,SystemResetWarning,0833.6,5.01,000.00,019.5,019.0,000.0,028.0,021.3,024.9,0000.0,0008.27,0006.05,0005.66
2024-04-19 06:55:00,SystemResetWarning,0833.5,5.00,000.00,019.5,019.0,000.0,028.0,021.3,024.9,0000.0,0008.31,0006.07,0005.66
2024-04-19 06:56:00,SystemResetWarning,0833.4,5.00,000.00,019.5,019.0,000.0,028.0,021.3,024.9,0000.0,0008.25,0006.05,0005.66
2024-04-19 06:57:00,SystemResetWarning,0833.4,5.00,000.00,019.5,019.0,000.0,028.0,021.3,024.9,0000.0,0008.22,0006.03,0005.67
2024-04-19 06:58:00,SystemResetWarning,0833.4,5.00,000.00,019.5,019.0,000.0,028.0,021.3,024.9,0000.0,0008.14,0005.99,0005.66
2024-04-19 06:59:00,SystemResetWarning,0833.4,4.99,000.00,019.5,019.0,000.0,028.0,021.3,024.8,0000.0,0008.38,0005.96,0005.65
